Flag for Italy Weather past 2 weeks in Naples, Italy

Now
70 °F

Clear.


Feels Like: 70 °F
Forecast: 68 / 87 °F
Wind: 2 mph from North

Location: Naples / Capodichino

Current Time: Sep 18, 2014 at 2:18:08 AM

Latest Report: Sep 18, 2014 at 1:50 AM


Visibility: 10 mi

Pressure: 29.98 "Hg

Humidity: 73%

Dew point: 61 °F

Location of NaplesLocation

Historic Weather in Naples — Graph

°F

Naples temperature yesterday

Maximum temperature yesterday: 82 °F (at 2:20 PM)
Minimum temperature yesterday: 66 °F (at 3:20 AM)
Average temperature yesterday: 73 °F

Past Weeks' High & Low Weather Summary

 TemperatureHumidityPressure
High82 °F (Sep 4, 4:50 PM)94% (Sep 5, 5:20 PM)30.07 "Hg (Sep 5, 5:20 PM)
Low63 °F (Sep 14, 3:50 AM)39% (Sep 13, 3:20 PM)29.74 "Hg (Sep 3, 12:20 AM)
Average73 °F73%29.91 "Hg
* Reported Sep 3 12:20 AM — Sep 18 12:50 AM, Naples, Weather by CustomWeather, © 2014

Note: Actual official high and low records may vary slightly from our data, if they occured in-between our weather recording intervals... More about our weather records

Advertising

Naples weather history for previous 24 hours

 ConditionsComfort  
Time TempWeatherWind HumidityBarometerVisibility
12:50 AM
Sep 18
70 °FClear.3 mph78%29.98 "Hg10 mi
12:20 AM70 °FClear.3 mph78%29.98 "Hg10 mi
11:50 PM
Sep 17
70 °FClear.2 mph78%29.98 "Hg10 mi
11:20 PM72 °FPassing clouds.2 mph73%29.98 "HgN/A
10:50 PM72 °FPassing clouds.3 mph73%29.98 "HgN/A
10:20 PM72 °FPassing clouds.3 mph73%29.98 "HgN/A
9:50 PM73 °FPassing clouds.2 mph69%29.98 "HgN/A
9:20 PM73 °FPassing clouds.1 mph69%29.98 "HgN/A
8:50 PM75 °FPassing clouds.5 mph65%29.98 "HgN/A
8:20 PM75 °FPassing clouds.1 mph65%29.95 "HgN/A
7:50 PM75 °FScattered clouds.3 mph65%29.95 "HgN/A
7:20 PM75 °FScattered clouds.5 mph61%29.95 "HgN/A
6:50 PM77 °FScattered clouds.3 mph57%29.95 "HgN/A
6:20 PM77 °FScattered clouds.5 mph61%29.95 "HgN/A
5:50 PM79 °FScattered clouds.3 mph54%29.95 "HgN/A
5:20 PM79 °FScattered clouds.3 mph54%29.92 "HgN/A
4:50 PM81 °FScattered clouds.5 mph51%29.92 "HgN/A
4:20 PM79 °FPartly sunny.6 mph54%29.95 "HgN/A
3:50 PM79 °FPartly sunny.6 mph54%29.95 "HgN/A
3:20 PM79 °FPartly sunny.5 mph51%29.95 "HgN/A
2:50 PM79 °FPassing clouds.8 mph51%29.95 "HgN/A
2:20 PM82 °FPassing clouds.6 mph42%29.95 "HgN/A
1:50 PM81 °FPassing clouds.3 mph48%29.95 "HgN/A
1:20 PM81 °FPassing clouds.2 mph45%29.95 "HgN/A
12:50 PM81 °FPassing clouds.2 mph42%29.98 "HgN/A
12:20 PM79 °FScattered clouds.2 mph48%29.95 "HgN/A
11:50 AM79 °FScattered clouds.2 mph48%29.98 "HgN/A
11:20 AM77 °FWarm.N/A51%29.98 "HgN/A
10:50 AM75 °FPassing clouds.3 mph54%29.98 "HgN/A
10:20 AM75 °FPassing clouds.3 mph50%29.98 "HgN/A
9:50 AM73 °FPassing clouds.5 mph53%29.98 "HgN/A
9:20 AM73 °FSunny.3 mph50%29.98 "Hg10 mi
8:50 AM72 °FPassing clouds.6 mph57%29.98 "HgN/A
8:20 AM70 °FPassing clouds.5 mph60%29.95 "HgN/A
7:50 AM68 °FSunny.5 mph64%29.95 "Hg10 mi
7:20 AM68 °FPassing clouds.5 mph69%29.95 "HgN/A
6:50 AM66 °FClear.5 mph73%29.95 "Hg10 mi
6:20 AM66 °FClear.5 mph73%29.92 "Hg10 mi
5:50 AM66 °FClear.3 mph73%29.95 "Hg10 mi
5:20 AM68 °FClear.3 mph69%29.95 "Hg10 mi
4:50 AM66 °FClear.5 mph73%29.95 "Hg10 mi
4:20 AM66 °FClear.5 mph73%29.95 "Hg10 mi
3:50 AM68 °FClear.3 mph69%29.95 "Hg10 mi
3:20 AM66 °FClear.5 mph73%29.95 "Hg10 mi
2:50 AM68 °FClear.5 mph69%29.95 "Hg10 mi
2:20 AM68 °FClear.5 mph69%29.95 "Hg10 mi
Weather by CustomWeather, © 2014

See weather overviewHow to use our weather pages